[[{"header":{"parameterUnit":"m.s-1","parameterCategory":1,"la1":30.2991,"la2":30.254,"lo1":-89.0895,"lo2":-89.0444,"dy":0.0017,"dx":0.0017,"nx":28,"ny":28,"refTime":"2024-05-20T21:00:00:Z","depth":0,"parameterNumber":2,"parameterNumberName":"U-component_of_WINDS"},"data":[0,0,0,0,0,0,0,0,0,0,0,0,0,0,0,0,0,0,0,0,0,0,0,0,0,0,0,0,0,0,0,0,0,0,0,0,0,0,0,0,0,0,0,0,0,0,0,0,0,0,0,0,0,0,0,0,0,0,-3.3337,-3.3336,0,-3.3258,-3.3257,-3.3256,-3.3179,-3.3178,-3.3177,-3.3176,-3.3093,-3.3092,-3.309,0,0,0,0,0,0,0,0,0,0,0,0,0,-3.342,-3.3419,-3.3337,-3.3336,-3.3335,-3.3258,-3.3257,-3.3256,-3.318,-3.3178,-3.3177,-3.3176,-3.3093,-3.3092,-3.309,0,0,0,0,0,0,0,0,0,0,0,0,0,-3.3367,-3.3418,-3.3337,-3.3288,-3.3283,-3.3259,-3.3257,-3.3256,-3.318,-3.3178,-3.3177,-3.3175,-3.3094,-3.3092,-3.309,-3.3108,0,0,-3.3084,-3.3083,0,0,0,0,0,0,0,0,-3.337,-3.3364,-3.3296,-3.3291,-3.3285,-3.3227,-3.3256,-3.3206,-3.318,-3.3219,-3.3176,-3.3175,-3.3139,-3.3133,-3.3121,-3.3104,-3.31,-3.3084,-3.3083,-3.3082,-3.3081,0,0,0,0,0,0,0,-3.3374,-3.3367,-3.3306,-3.3295,-3.3289,-3.3269,-3.326,-3.3246,-3.3188,-3.3215,-3.321,-3.3201,-3.3135,-3.3123,-3.3119,-3.3099,-3.3084,-3.3082,-3.3081,-3.308,-3.3092,-3.3093,0,0,0,0,0,0,-3.3385,-3.337,-3.3308,-3.3303,-3.3325,-3.3269,-3.3258,-3.3247,-3.3188,-3.3177,-3.3203,-3.3198,-3.3127,-3.3121,-3.3115,-3.3132,-3.3082,-3.308,-3.3079,-3.3091,-3.3092,-3.3094,0,0,0,0,0,0,-3.3387,-3.338,-3.3312,-3.3335,-3.3325,-3.3269,-3.3257,-3.3247,-3.3234,-3.3178,-3.3167,-3.3201,-3.3126,-3.3118,-3.311,-3.3128,-3.3079,-3.3077,-3.3089,-3.3091,-3.3093,-3.3165,0,0,0,0,0,0,-3.339,-3.3382,-3.3388,-3.3336,-3.3324,-3.3309,-3.3258,-3.3246,-3.3232,-3.3225,-3.3174,-3.3164,-3.3124,-3.3114,-3.3108,-3.3124,-3.3076,-3.3087,-3.309,-3.3092,-3.3161,-3.317,-3.3177,0,0,0,0,0,-3.3393,-3.3411,-3.3389,-3.3382,-3.3331,-3.331,-3.3303,-3.3257,-3.3233,-3.3239,-3.3203,-3.3166,-3.3127,-3.3114,-3.3107,-3.3122,-3.3086,-3.3089,-3.3092,-3.3157,-3.3168,-3.3177,0,0,0,0,0,0,-3.3465,-3.3403,-3.3378,-3.338,-3.3351,-3.3297,-3.3302,-3.327,-3.3246,-3.3241,-3.3184,-3.3174,-3.3172,-3.3146,-3.3132,-3.3137,-3.3101,-3.3103,-3.3153,-3.3163,-3.317,-3.3176,-3.3074,0,0,0,0,0,-3.3482,-3.347,-3.3416,-3.3423,-3.341,-3.3359,-3.3348,-3.3316,-3.3283,-3.327,-3.3233,-3.3203,-3.3183,-3.3172,-3.3151,-3.3158,-3.3145,-3.3165,-3.3173,-3.318,-3.3182,-3.3183,-3.3191,-3.3105,-3.3105,-3.3105,0,0,-3.3514,-3.3479,-3.3475,-3.3436,-3.341,-3.3399,-3.3349,-3.3339,-3.333,-3.3268,-3.3258,-3.3231,-3.3193,-3.3192,-3.319,-3.3171,-3.3203,-3.3184,-3.319,-3.3188,-3.3188,-3.3196,-3.3203,-3.3107,-3.3107,-3.3106,0,0,-3.3568,-3.3541,-3.3544,-3.3519,-3.348,-3.3447,-3.3448,-3.3399,-3.3378,-3.3368,-3.3322,-3.331,-3.3278,-3.3253,-3.3236,-3.3283,-3.3247,-3.3278,-3.3319,-3.3321,-3.3327,-3.3333,-3.3349,-3.3355,-3.328,-3.328,-3.328,0,-3.3614,-3.3596,-3.3549,-3.3542,-3.3526,-3.3471,-3.3473,-3.3451,-3.3407,-3.3397,-3.3377,-3.3336,-3.3307,-3.3299,-3.3311,-3.3299,-3.3298,-3.3282,-3.333,-3.3336,-3.334,-3.3355,-3.3361,-3.3284,-3.3284,-3.3283,-3.3283,0,-3.3653,-3.3642,-3.3648,-3.3608,-3.3593,-3.3591,-3.3543,-3.3534,-3.3503,-3.3472,-3.3462,-3.3425,-3.3396,-3.3392,-3.3362,-3.3381,-3.337,-3.3341,-3.3304,-3.3353,-3.3366,-3.3371,-3.329,-3.3288,-3.3287,-3.3286,0,0,-3.3748,-3.3684,-3.3687,-3.3669,-3.3623,-3.3613,-3.3608,-3.3581,-3.3573,-3.3546,-3.3539,-3.3515,-3.3488,-3.3469,-3.3435,-3.3437,-3.3476,-3.3408,-3.3406,-3.3421,-3.3494,-3.3515,-3.3522,-3.3453,-3.3454,-3.3454,-3.3496,0,-3.3794,-3.3782,-3.3741,-3.3741,-3.373,-3.3678,-3.3674,-3.3645,-3.3616,-3.3601,-3.3569,-3.3552,-3.3518,-3.3506,-3.3506,-3.3471,-3.3489,-3.3468,-3.3445,-3.3445,-3.3455,-3.3529,-3.3551,-3.3592,-3.3501,-3.3502,-3.3503,0,-3.3845,-3.3822,-3.3822,-3.3777,-3.377,-3.3767,-3.3739,-3.3726,-3.3692,-3.3671,-3.3651,-3.3614,-3.3605,-3.3573,-3.356,-3.3546,-3.3535,-3.3517,-3.3517,-3.3512,-3.3476,-3.3524,-3.3604,-3.361,-3.351,-3.3509,-3.3509,0,-3.3913,-3.3882,-3.3878,-3.3864,-3.3812,-3.3811,-3.3789,-3.3754,-3.374,-3.3716,-3.3706,-3.3681,-3.3667,-3.3648,-3.3605,-3.3585,-3.3597,-3.356,-3.3578,-3.3579,-3.3581,-3.3581,-3.3659,-3.3576,-3.3576,-3.3576,-3.3576,0,-3.3967,-3.3969,-3.3908,-3.3905,-3.3906,-3.3858,-3.386,-3.3833,-3.3802,-3.3793,-3.3747,-3.374,-3.3684,-3.367,-3.3637,-3.3631,-3.3625,-3.3607,-3.3597,-3.361,-3.3612,-3.36,-3.3596,-3.3578,-3.3577,-3.3577,-3.3577,0,-3.4043,-3.4002,-3.3994,-3.3946,-3.3934,-3.3937,-3.3895,-3.389,-3.3859,-3.3848,-3.3843,-3.3794,-3.3775,-3.3731,-3.37,-3.3677,-3.368,-3.3664,-3.3691,-3.3685,-3.3705,-3.3703,-3.3776,-3.3783,-3.3698,-3.3699,-3.37,0,-3.4079,-3.408,-3.4032,-3.4023,-3.4004,-3.399,-3.3976,-3.3929,-3.3917,-3.3879,-3.3879,-3.3857,-3.3836,-3.3808,-3.3769,-3.3745,-3.3728,-3.3755,-3.3724,-3.3736,-3.3727,-3.3727,-3.3726,-3.3762,-3.3763,-3.3764,-3.3765,0,-3.4148,-3.4128,-3.4111,-3.4087,-3.4072,-3.4051,-3.4026,-3.4022,-3.3969,-3.3957,-3.3938,-3.3922,-3.3891,-3.3869,-3.384,-3.3816,-3.3781,-3.3775,-3.3778,-3.379,-3.3805,-3.3796,-3.3709,-3.3773,-3.3772,-3.3772,-3.3771,-3.3771,-3.4204,-3.4202,-3.4169,-3.4151,-3.4128,-3.4107,-3.41,-3.4069,-3.4052,-3.4024,-3.3998,-3.3981,-3.3947,-3.3904,-3.3884,-3.3869,-3.3852,-3.3856,-3.3856,-3.3858,-3.3863,-3.3809,-3.3864,-3.3864,-3.3863,-3.3863,-3.3863,0,-3.427,-3.4246,-3.4231,-3.4199,-3.4185,-3.4155,-3.4127,-3.4117,-3.4103,-3.4076,-3.4057,-3.4035,-3.4014,-3.3974,-3.3949,-3.3945,-3.3929,-3.394,-3.3939,-3.3934,-3.388,-3.388,-3.3954,-3.3954,-3.3954,-3.3954,-3.3954,-3.3954,-3.4302,-3.4297,-3.4274,-3.4257,-3.4233,-3.4217,-3.4203,-3.4183,-3.4161,-3.4139,-3.4121,-3.4096,-3.4063,-3.4036,-3.4015,-3.4004,-3.3996,-3.4013,-3.3997,-3.3947,-3.3938,-3.393,-3.3929,-3.4012,-3.4012,-3.4051,-3.4052,-3.4052]},{"header":{"parameterUnit":"m.s-1","parameterCategory":1,"la1":30.2991,"la2":30.254,"lo1":-89.0895,"lo2":-89.0444,"dy":0.0017,"dx":0.0017,"nx":28,"ny":28,"refTime":"2024-05-20T21:00:00:Z","depth":0,"parameterNumber":3,"parameterNumberName":"V-component_of_WINDS"},"data":[0,0,0,0,0,0,0,0,0,0,0,0,0,0,0,0,0,0,0,0,0,0,0,0,0,0,0,0,0,0,0,0,0,0,0,0,0,0,0,0,0,0,0,0,0,0,0,0,0,0,0,0,0,0,0,0,0,0,2.379,2.379,0,2.3795,2.3795,2.3795,2.3856,2.3858,2.3859,2.3861,2.3859,2.3857,2.3856,0,0,0,0,0,0,0,0,0,0,0,0,0,2.3829,2.3828,2.379,2.379,2.379,2.3795,2.3795,2.3795,2.3856,2.3858,2.386,2.3861,2.3859,2.3858,2.3856,0,0,0,0,0,0,0,0,0,0,0,0,0,2.3821,2.3828,2.379,2.3821,2.3824,2.3795,2.3795,2.3795,2.3855,2.3858,2.386,2.3862,2.386,2.3858,2.3855,2.3794,0,0,2.3848,2.3847,0,0,0,0,0,0,0,0,2.3821,2.3819,2.3817,2.3819,2.3822,2.3827,2.3808,2.3794,2.3855,2.3843,2.3861,2.3863,2.3846,2.3845,2.384,2.3794,2.3794,2.3848,2.3847,2.3846,2.3845,0,0,0,0,0,0,0,2.3822,2.3819,2.3792,2.3817,2.382,2.3833,2.3835,2.3805,2.3831,2.3845,2.3849,2.3849,2.3848,2.3842,2.3841,2.3794,2.3848,2.3846,2.3845,2.3844,2.3698,2.3696,0,0,0,0,0,0,2.3819,2.3819,2.3792,2.3792,2.3828,2.3831,2.3832,2.3823,2.3832,2.3835,2.3847,2.3852,2.3845,2.3843,2.3841,2.3771,2.3846,2.3844,2.3842,2.3701,2.3698,2.3695,0,0,0,0,0,0,2.3819,2.3816,2.3791,2.3807,2.3805,2.3828,2.3817,2.3822,2.3817,2.3834,2.3838,2.3837,2.3847,2.3844,2.3806,2.3772,2.3843,2.3841,2.3704,2.37,2.3696,2.3629,0,0,0,0,0,0,2.382,2.3815,2.3793,2.3806,2.3804,2.3758,2.3815,2.382,2.3813,2.382,2.3826,2.3829,2.3849,2.3809,2.3804,2.377,2.3839,2.3707,2.3702,2.3698,2.3634,2.3623,2.3614,0,0,0,0,0,2.3821,2.3773,2.3792,2.3788,2.3777,2.3756,2.3754,2.378,2.381,2.3788,2.3799,2.3828,2.3776,2.3805,2.3799,2.3764,2.3709,2.3703,2.3698,2.3639,2.3626,2.3614,0,0,0,0,0,0,2.3753,2.3775,2.3797,2.3751,2.3751,2.3766,2.3738,2.3765,2.3755,2.3761,2.3791,2.3792,2.3749,2.3752,2.3784,2.3705,2.3748,2.3741,2.3705,2.3692,2.3682,2.3682,2.3837,0,0,0,0,0,2.3733,2.3716,2.3735,2.3692,2.3692,2.3715,2.3706,2.3727,2.3727,2.3727,2.3735,2.3733,2.3716,2.3704,2.369,2.3635,2.3637,2.3608,2.3598,2.359,2.3583,2.3555,2.3543,2.3677,2.3677,2.3677,0,0,2.3691,2.3701,2.3687,2.3679,2.3682,2.3662,2.3714,2.369,2.3676,2.3723,2.3688,2.3694,2.3693,2.3647,2.3627,2.3649,2.3547,2.3582,2.3575,2.3574,2.3548,2.3536,2.3524,2.3673,2.3673,2.3674,0,0,2.3604,2.361,2.3576,2.3578,2.3582,2.3598,2.359,2.3601,2.3608,2.3574,2.3609,2.3591,2.3561,2.356,2.3555,2.3469,2.3496,2.3463,2.341,2.3382,2.3372,2.3362,2.3332,2.3321,2.3456,2.3456,2.3456,0,2.355,2.3524,2.3554,2.3529,2.3524,2.3569,2.3534,2.3534,2.3532,2.3527,2.3551,2.3516,2.3519,2.3474,2.3453,2.3447,2.3438,2.3462,2.3371,2.3362,2.3354,2.3326,2.3314,2.3452,2.3453,2.3453,2.3453,0,2.3458,2.3438,2.341,2.3411,2.3402,2.3372,2.3397,2.3385,2.3406,2.3419,2.3384,2.3389,2.3377,2.3367,2.3386,2.3324,2.3338,2.3366,2.3409,2.3337,2.3311,2.33,2.3447,2.3448,2.3449,2.345,0,0,2.3328,2.3347,2.3336,2.3337,2.3345,2.333,2.3301,2.3292,2.3281,2.3278,2.3255,2.3229,2.3257,2.3251,2.327,2.3246,2.3179,2.3278,2.3278,2.326,2.3112,2.3091,2.3078,2.3197,2.3195,2.3193,2.3112,0,2.3245,2.32,2.3227,2.3177,2.316,2.3202,2.3177,2.3179,2.319,2.3175,2.3187,2.3169,2.3205,2.3203,2.3181,2.3192,2.3149,2.3198,2.3174,2.3173,2.3174,2.3064,2.3042,2.2965,2.3102,2.31,2.3099,0,2.3142,2.3138,2.3087,2.31,2.3094,2.3071,2.3065,2.3051,2.3053,2.3063,2.3058,2.3084,2.3055,2.3098,2.306,2.3092,2.3084,2.3087,2.3085,2.3084,2.3132,2.3061,2.2941,2.293,2.3083,2.3084,2.3085,0,2.3054,2.3035,2.3003,2.3002,2.3016,2.2999,2.3004,2.3009,2.3002,2.2995,2.2991,2.2981,2.2975,2.2966,2.2987,2.3017,2.2946,2.299,2.2953,2.2952,2.2936,2.2937,2.2814,2.2929,2.293,2.293,2.293,0,2.2959,2.2926,2.2963,2.2943,2.2908,2.2939,2.2902,2.2911,2.2915,2.2897,2.2931,2.2912,2.2942,2.2926,2.2942,2.2908,2.2905,2.2911,2.2916,2.2909,2.2908,2.2904,2.291,2.2927,2.2928,2.2928,2.2929,0,2.2854,2.2878,2.2845,2.2862,2.2865,2.2838,2.2852,2.2833,2.2848,2.2824,2.282,2.2841,2.2824,2.2845,2.2829,2.284,2.2794,2.2806,2.2794,2.2798,2.2759,2.2763,2.263,2.2614,2.2739,2.2738,2.2737,0,2.2793,2.2769,2.2784,2.2775,2.2779,2.2764,2.2757,2.2786,2.2778,2.278,2.2761,2.2747,2.2738,2.2709,2.2722,2.271,2.2723,2.2677,2.2721,2.2715,2.2723,2.2724,2.2722,2.2668,2.2666,2.2665,2.2664,0,2.2681,2.2694,2.2685,2.268,2.2672,2.2668,2.2667,2.2657,2.2688,2.2677,2.2661,2.2654,2.264,2.2625,2.2618,2.2621,2.2647,2.265,2.2641,2.2634,2.2628,2.2631,2.277,2.2653,2.2654,2.2655,2.2656,2.2656,2.2597,2.2578,2.2586,2.2575,2.2578,2.2576,2.256,2.2573,2.2561,2.2553,2.2571,2.2551,2.2554,2.2546,2.2547,2.2531,2.255,2.2536,2.2533,2.253,2.2524,2.263,2.2529,2.2529,2.253,2.253,2.253,0,2.2488,2.2496,2.2485,2.2484,2.2474,2.2502,2.2503,2.2493,2.2476,2.2477,2.2468,2.2451,2.2437,2.245,2.2439,2.2424,2.2436,2.242,2.2422,2.2422,2.2507,2.2517,2.2411,2.2411,2.2411,2.2411,2.2411,2.2411,2.243,2.2401,2.2415,2.2387,2.2394,2.2377,2.2375,2.2373,2.2375,2.2354,2.2345,2.2354,2.2359,2.235,2.2338,2.2342,2.2337,2.2317,2.2325,2.2404,2.2416,2.2427,2.2436,2.2315,2.2315,2.2242,2.2241,2.2241]}]]